SCP
0 0 0 0 0 0 0 0 0 0 0 0 0 0 0 0 0 0 0 0 0 0 0 0 0 0 0 0 0 0 0 0 0 0 0 0 0 0 0 0 0 0 0 0
0 0 0 0 0 0 0 0 0 0 0 0 0 0 0 0 0 0 0 0 0 0 0 0 0 0 0 0 0 0 0 0 0 0 0 0 0 0 0 0 0 0 0 0
0 0 0 0 0 0 0 0 0 0 0 0 0 0 0 0 0 0 0 0 0 0 0 0 0 0 0 0 0 0 0 0 0 0 0 0 0 0 0 0 0 0 0 0
0 0 0 0 0 0 0 0 0 0 0 0 0 0 0 0 0 0 0 0 0 0 0 0 0 0 0 0 0 0 0 0 0 0 0 0 0 0 0 0 0 0 0 0
0 0 0 0 0 0 0 0 0 0 0 0 0 0 0 0 0 0 0 0 0 0 0 0 0 0 0 0 0 0 0 0 0 0 0 0 0 0 0 0 0 0 0 0
0 0 0 0 0 0 0 0 0 0 0 0 0 0 0 0 0 0 0 0 0 0 0 0 0 0 0 0 0 0 0 0 0 0 0 0 0 0 0 0 0 0 0 0
0 0 0 0 0 0 0 0 0 0 0 0 0 0 0 0 0 0 0 0 0 0 0 0 0 0 0 0 0 0 0 0 0 0 0 0 0 0 0 0 0 0 0 0
0 0 0 0 0 0 0 0 0 0 0 0 0 0 0 0 0 0 0 0 0 0 0 0 0 0 0 0 0 0 0 0 0 0 0 0 0 0 0 0 0 0 0 0
0 0 0 0 0 0 0 0 0 0 0 0 0 0 0 0 0 0 0 0 0 0 0 0 0 0 0 0 0 0 0 0 0 0 0 0 0 0 0 0 0 0 0 0
0 0 0 0 0 0 0 0 0 0 0 0 0 0 0 0 0 0 0 0 0 0 0 0 0 0 0 0 0 0 0 0 0 0 0 0 0 0 0 0 0 0 0 0
0 0 0 0 0 0 0 0 0 0 0 0 0 0 0 0 0 0 0 0 0 0 0 0 0 0 0 0 0 0 0 0 0 0 0 0 0 0 0 0 0 0 0 0
0 0 0 0 0 0 0 0 0 0 0 0 0 0 0 0 0 0 0 0 0 0 0 0 0 0 0 0 0 0 0 0 0 0 0 0 0 0 0 0 0 0 0 0
0 0 0 0 0 0 0 0 0 0 0 0 0 0 0 0 0 0 0 0 0 0 0 0 0 0 0 0 0 0 0 0 0 0 0 0 0 0 0 0 0 0 0 0
0 0 0 0 0 0 0 0 0 0 0 0 0 0 0 0 0 0 0 0 0 0 0 0 0 0 0 0 0 0 0 0 0 0 0 0 0 0 0 0 0 0 0 0
0 0 0 0 0 0 0 0 0 0 0 0 0 0 0 0 0 0 0 0 0 0 0 0 0 0 0 0 0 0 0 0 0 0 0 0 0 0 0 0 0 0 0 0
0 0 0 0 0 0 0 0 0 0 0 0 0 0 0 0 0 0 0 0 0 0 0 0 0 0 0 0 0 0 0 0 0 0 0 0 0 0 0 0 0 0 0 0
0 0 0 0 0 0 0 0 0 0 0 0 0 0 0 0 0 0 0 0 0 0 0 0 0 0 0 0 0 0 0 0 0 0 0 0 0 0 0 0 0 0 0 0
0 0 0 0 0 0 0 0 0 0 0 0 0 0 0 0 0 0 0 0 0 0 0 0 0 0 0 0 0 0 0 0 0 0 0 0 0 0 0 0 0 0 0 0
0 0 0 0 0 0 0 0 0 0 0 0 0 0 0 0 0 0 0 0 0 0 0 0 0 0 0 0 0 0 0 0 0 0 0 0 0 0 0 0 0 0 0 0
0 0 0 0 0 0 0 0 0 0 0 0 0 0 0 0 0 0 0 0 0 0 0 0 0 0 0 0 0 0 0 0 0 0 0 0 0 0 0 0 0 0 0 0
0 0 0 0 0 0 0 0 0 0 0 0 0 0 0 0 0 0 0 0 0 0 0 0 0 0 0 0 0 0 0 0 0 0 0 0 0 0 0 0 0 0 0 0
0 0 0 0 0 0 0 0 0 0 0 0 0 0 0 0 0 0 0 0 0 0 0 0 0 0 0 0 0 0 0 0 0 0 0 0 0 0 0 0 0 0 0 0
0 0 0 0 0 0 0 0 0 0 0 0 0 0 0 0 0 0 0 0 0 0 0 0 0 0 0 0 0 0 0 0 0 0 0 0 0 0 0 0 0 0 0 0
0 0 0 0 0 0 0 0 0 0 0 0 0 0 0 0 0 0 0 0 0 0 0 0 0 0 0 0 0 0 0 0 0 0 0 0 0 0 0 0 0 0 0 0
0 0 0 0 0 0 0 0 0 0 0 0 0 0 0 0 0 0 0 0 0 0 0 0 0 0 0 0 0 0 0 0 0 0 0 0 0 0 0 0 0 0 0 0
0 0 0 0 0 0 0 0 0 0 0 0 0 0 0 0 0 0 0 0 0 0 0 0 0 0 0 0 0 0 0 0 0 0 0 0 0 0 0 0 0 0 0 0
Wind_Speed
6 8 4 1 1 1 2 3 2 1 4 5 6 5 5 7 7 8 7 7 6 5 3 3 1 2 3 4 5 5 7 7 6 5 6 6 6 6 5 5 7 9 9 9
7 4 1 1 1 1 2 2 1 0 2 3 2 4 3 6 7 8 9 9 7 5 3 3 1 1 3 4 5 6 7 7 7 5 5 4 6 5 5 6 7 8 9 10
4 1 2 2 4 3 1 2 2 2 2 2 1 4 3 3 3 4 5 6 6 7 6 3 2 1 3 4 6 7 7 7 7 7 5 6 4 4 4 5 5 7 10 10
3 3 2 3 2 2 0 1 2 3 1 3 0 6 5 4 3 5 6 6 6 5 4 3 1 1 2 4 5 6 7 7 7 7 7 8 8 7 7 6 7 9 9 10
1 2 3 2 1 0 1 1 1 2 2 1 0 2 7 2 5 8 8 7 6 5 4 3 1 1 2 4 5 5 6 6 7 7 7 7 6 6 7 8 8 8 7 8
1 0 1 0 1 1 1 4 4 4 3 3 3 4 8 6 8 6 8 7 7 6 4 3 2 2 3 4 5 5 6 7 7 8 8 7 8 9 11 11 9 8 7 6
3 1 2 1 1 4 4 4 5 6 4 5 2 3 10 3 5 6 9 9 7 6 4 2 1 2 3 5 5 6 7 8 8 8 8 8 8 8 9 11 10 10 9 8
2 4 3 3 2 1 2 3 4 2 5 7 2 7 7 0 1 1 5 7 7 5 4 2 1 1 3 5 5 6 7 8 8 8 8 8 7 6 7 9 10 10 9 10
1 4 1 1 0 1 2 2 2 4 1 5 7 8 5 2 1 2 5 7 7 6 4 3 1 1 3 4 5 6 7 8 8 9 9 8 8 8 9 10 9 8 9 11
1 4 3 2 1 3 2 6 4 3 2 6 8 7 6 6 8 7 7 8 7 5 4 3 1 1 2 4 5 6 6 7 8 8 8 9 9 9 9 9 10 11 11 12
0 1 5 2 2 3 3 3 4 3 3 3 6 10 4 6 8 11 11 9 8 7 5 3 1 1 3 4 5 6 6 7 7 8 8 8 9 9 9 9 10 11 11 12
2 3 4 4 0 1 2 3 6 3 3 4 3 12 1 2 4 7 9 8 7 6 5 3 1 1 3 4 5 6 6 7 7 7 8 8 9 9 9 10 11 11 12 12
3 3 4 5 2 1 1 3 4 4 4 4 5 12 1 1 1 4 7 8 7 6 5 2 1 2 3 4 5 6 6 7 7 7 8 8 9 9 10 10 11 11 12 12
4 2 4 6 5 2 4 4 5 6 4 5 11 14 7 5 6 5 6 7 7 6 5 3 2 2 3 4 5 6 6 6 7 7 8 8 9 9 10 10 11 11 11 12
3 2 4 7 5 3 6 8 8 9 9 10 11 10 12 7 10 9 8 8 7 6 5 4 3 3 3 4 5 5 6 6 7 7 8 8 8 9 9 10 10 11 11 13
3 1 3 6 1 3 7 9 8 9 7 10 10 16 7 1 4 7 9 9 8 7 6 5 4 3 4 4 5 5 6 6 6 7 7 8 8 9 9 9 9 10 11 11
2 1 3 6 5 6 9 8 10 8 9 10 11 10 3 3 7 10 12 11 9 7 6 6 5 4 4 4 4 5 6 6 6 7 7 8 8 9 9 10 10 10 10 11
5 3 1 4 8 6 7 1 7 7 9 10 10 6 6 5 3 4 7 10 9 8 7 6 4 4 3 3 4 4 5 6 6 7 7 8 8 9 9 9 9 9 8 9
3 5 2 1 4 12 10 3 5 5 10 9 11 8 4 4 3 3 6 8 8 8 6 5 4 4 3 3 3 4 5 5 6 7 7 8 8 9 9 9 9 8 7 8
5 4 4 3 2 9 7 2 3 2 9 6 8 7 8 8 3 7 9 9 7 7 5 5 4 3 3 3 2 4 5 6 6 7 8 8 8 8 9 9 8 6 7 8
2 3 3 5 6 14 7 4 5 3 9 3 8 10 13 12 7 3 10 9 8 7 6 5 4 3 3 3 2 4 5 6 7 7 8 8 8 8 8 7 6 8 8 9
9 7 7 6 5 14 6 9 11 12 2 5 7 8 12 8 5 7 10 10 9 7 6 6 4 4 3 2 2 4 6 6 6 7 8 8 8 7 8 7 8 8 8 8
9 11 9 13 14 6 10 12 9 4 6 6 7 8 11 9 8 9 9 9 8 8 7 5 5 4 3 3 3 5 6 6 7 7 8 8 9 7 7 7 8 8 7 7
6 5 5 8 15 10 11 11 7 7 7 6 7 9 13 10 11 10 10 9 8 8 7 5 5 4 4 4 4 5 6 5 6 7 8 8 8 8 7 6 6 7 7 8
8 8 5 10 12 9 9 13 12 8 6 6 7 9 12 12 11 12 11 11 9 8 6 6 5 5 5 4 4 5 4 4 6 7 7 8 8 7 7 7 6 8 7 10
10 13 12 13 12 9 8 5 9 11 11 12 11 9 8 10 13 13 11 10 9 8 7 6 6 6 5 4 5 5 4 4 5 6 7 6 6 7 7 8 9 12 13 17
Wind_Direction
19 59 51 351 207 215 160 185 236 254 159 171 215 230 201 183 180 185 194 198 199 189 166 152 139 350 336 329 331 340 354 353 354 350 346 336 332 324 321 322 328 326 325 325
39 53 335 330 2 153 149 158 201 90 115 167 225 255 213 185 196 195 195 199 195 177 175 188 203 335 329 328 336 350 355 348 347 340 325 311 311 305 307 312 313 317 322 323
114 252 309 83 52 73 88 168 212 211 83 77 9 299 186 185 176 184 197 197 187 186 189 201 229 303 329 336 343 351 342 339 335 332 326 325 308 301 314 320 315 321 321 320
72 348 64 83 58 54 269 216 176 151 124 293 0 298 251 196 193 200 200 193 189 182 176 190 216 310 340 339 342 342 335 331 330 334 336 337 342 332 325 321 317 318 317 316
57 17 57 71 352 339 245 55 122 149 156 324 272 246 286 165 231 227 211 200 189 178 171 174 156 39 5 348 340 334 330 328 330 335 334 331 324 312 315 317 315 315 313 311
118 86 80 291 334 38 105 80 67 63 75 299 222 188 276 212 215 217 200 192 182 171 163 144 94 40 357 344 338 335 334 330 332 333 330 325 319 319 324 326 323 323 319 313
359 35 16 1 48 18 53 64 14 354 353 270 182 217 256 232 215 204 190 184 173 166 158 147 80 0 340 339 339 338 338 332 329 329 326 320 316 316 319 323 325 325 324 322
5 311 350 20 91 67 37 103 124 269 276 296 289 247 260 162 27 155 155 152 154 161 159 154 139 337 327 336 340 337 334 328 326 326 323 315 316 321 319 319 320 319 318 315
34 283 338 56 110 130 102 100 141 145 301 289 282 281 296 121 104 125 137 148 168 170 164 159 153 335 335 337 334 330 327 324 323 321 320 317 325 324 321 319 316 315 315 317
133 290 300 324 103 40 77 143 99 108 311 296 295 283 264 225 225 207 192 187 184 173 167 162 173 321 332 331 324 325 323 318 313 317 322 334 326 321 320 319 319 319 318 317
156 223 307 344 195 202 129 108 108 114 159 210 291 279 228 220 210 204 202 190 181 177 175 177 200 312 332 329 325 323 320 316 316 319 321 323 321 321 321 321 320 320 318 320
96 122 285 271 223 81 172 184 154 167 226 194 231 271 333 244 224 194 185 176 171 168 165 169 185 329 331 324 320 318 315 314 314 317 321 322 321 322 323 322 321 322 322 322
132 104 346 344 345 359 226 190 161 131 131 174 214 265 127 66 156 171 168 165 162 161 164 169 208 309 311 311 312 310 310 312 313 320 322 321 321 323 323 322 323 325 325 324
110 150 193 235 258 242 231 204 167 149 185 223 232 259 272 224 217 195 176 168 165 172 176 188 225 273 290 298 301 304 308 313 320 325 322 321 322 322 321 323 325 327 327 327
107 226 254 260 264 238 239 227 197 197 204 215 245 251 268 237 214 196 177 167 171 186 195 204 222 253 279 293 299 303 309 316 322 323 321 319 318 319 321 324 325 326 329 332
95 237 320 295 237 267 266 243 217 221 223 238 265 275 272 281 143 158 171 177 189 198 203 207 220 243 266 280 292 306 310 314 318 315 313 315 322 324 325 325 327 328 330 330
121 80 349 290 308 322 283 238 188 209 214 201 226 246 170 191 192 188 187 188 195 196 198 204 217 233 252 266 282 296 300 307 313 311 312 317 320 323 324 326 329 329 327 328
132 115 109 310 352 295 254 142 177 215 244 218 239 247 198 208 187 187 181 185 191 189 190 198 207 227 244 258 281 293 299 308 310 309 311 315 319 319 319 321 324 323 320 325
128 136 117 45 314 284 294 221 180 206 277 220 224 237 144 107 71 271 204 185 185 183 181 188 197 210 232 263 286 304 307 311 310 311 313 314 315 315 317 320 319 316 317 319
59 95 118 135 248 259 259 159 161 96 284 238 191 182 155 142 179 248 183 168 165 164 164 175 185 200 235 259 291 303 304 308 307 308 309 308 309 311 311 310 310 310 314 318
115 107 158 182 236 265 251 150 140 189 254 205 178 172 169 187 200 182 148 152 156 161 167 169 178 206 233 257 287 293 297 295 297 305 306 306 307 306 302 306 306 311 317 321
177 171 192 166 214 259 190 147 189 217 199 177 182 176 181 184 136 140 152 157 160 164 170 174 186 219 239 248 258 283 287 288 301 307 308 306 305 305 317 311 309 310 312 314
199 193 185 194 221 239 179 204 217 180 193 198 188 183 166 158 167 163 166 166 170 173 177 179 191 219 248 245 237 269 279 298 310 313 310 307 308 305 306 306 309 313 311 310
239 185 199 250 262 247 225 235 232 202 207 199 181 167 166 170 171 169 170 175 177 179 182 179 188 215 242 246 250 254 278 297 307 309 309 311 312 312 312 311 312 313 311 310
217 168 210 256 271 287 259 227 222 203 193 172 166 171 175 166 169 175 177 181 182 183 180 180 194 214 234 245 260 269 279 297 306 308 309 313 315 314 317 320 314 315 306 315
190 182 188 231 227 208 242 224 187 184 192 182 169 169 175 174 174 174 180 179 177 178 177 186 201 218 230 239 259 269 276 286 299 310 316 315 315 322 324 322 322 325 330 332